Flag for United Kingdom Weather past 2 weeks in Manchester, England, United Kingdom

Now
63 °F

Passing clouds.


Feels Like: 63 °F
Forecast: 55 / 67 °F
Wind: 17 mph from Southwest

Location: Manchester Airport

Current Time: Aug 28, 2015 at 7:14:44 PM

Latest Report: Aug 28, 2015 at 6:20 PM


Visibility: N/A

Pressure: 29.95 "Hg

Humidity: 64%

Dew point: 50 °F

Location of ManchesterLocation

Historic Weather in Manchester — Graph

°F

Manchester temperature yesterday

Maximum temperature yesterday: 68 °F (at 3:50 PM)
Minimum temperature yesterday: 52 °F (at 11:50 PM)
Average temperature yesterday: 58 °F

Past Weeks' High & Low Weather Summary

 TemperatureHumidityPressure
High77 °F (Aug 23, 1:20 PM)100% (Aug 14, 9:50 AM)30.12 "Hg (Aug 14, 9:50 AM)
Low45 °F (Aug 16, 3:50 AM)43% (Aug 27, 4:50 PM)29.45 "Hg (Aug 23, 1:50 PM)
Average60 °F79%29.83 "Hg
* Reported Aug 13 5:20 PM — Aug 28 5:50 PM, Manchester, Weather by CustomWeather, © 2015

Note: Actual official high and low records may vary slightly from our data, if they occured in-between our weather recording intervals... More about our weather records

Advertising

Manchester weather history for previous 24 hours

 ConditionsComfort  
Time TempWeatherWind HumidityBarometerVisibility
5:50 PM
Fri, Aug 28
64 °FPassing clouds.14 mph60%29.95 "HgN/A
5:20 PM64 °FScattered clouds.12 mph60%29.95 "HgN/A
4:50 PM66 °FPassing clouds.14 mph56%29.95 "HgN/A
4:20 PM66 °FPassing clouds.14 mph60%29.95 "HgN/A
3:50 PM64 °FPassing clouds.17 mph60%29.95 "HgN/A
3:20 PM64 °FScattered showers. Scattered clouds.14 mph60%29.95 "HgN/A
2:50 PM64 °FScattered showers. Scattered clouds.13 mph56%29.92 "HgN/A
2:20 PM66 °FScattered showers. Scattered clouds.15 mph56%29.95 "HgN/A
1:50 PM63 °FScattered showers. Scattered clouds.12 mph64%29.92 "HgN/A
1:20 PM64 °FScattered showers. Scattered clouds.13 mph56%29.92 "HgN/A
12:50 PM64 °FScattered showers. Scattered clouds.13 mph60%29.92 "HgN/A
12:20 PM64 °FScattered showers. Scattered clouds.18 mph60%29.92 "HgN/A
11:50 AM63 °FScattered showers. Scattered clouds.17 mph64%29.92 "HgN/A
11:20 AM63 °FScattered clouds.13 mph64%29.92 "HgN/A
10:50 AM61 °FPassing clouds.14 mph68%29.92 "HgN/A
10:20 AM61 °FPassing clouds.13 mph72%29.92 "HgN/A
9:50 AM59 °FPassing clouds.14 mph72%29.89 "HgN/A
9:20 AM59 °FPassing clouds.10 mph77%29.89 "HgN/A
8:50 AM55 °FScattered clouds.12 mph82%29.89 "HgN/A
8:20 AM55 °FScattered clouds.9 mph82%29.89 "HgN/A
7:50 AM54 °FPassing clouds.10 mph88%29.89 "HgN/A
7:20 AM54 °FPassing clouds.13 mph88%29.86 "HgN/A
6:50 AM52 °FPassing clouds.10 mph88%29.86 "HgN/A
6:20 AM52 °FClear.12 mph88%29.86 "Hg10 mi
5:50 AM52 °FClear.10 mph88%29.83 "Hg10 mi
4:50 AM50 °FClear.8 mph94%29.83 "Hg10 mi
3:50 AM52 °FClear.9 mph88%29.83 "Hg10 mi
3:20 AM54 °FPassing clouds.9 mph82%29.80 "HgN/A
2:50 AM54 °FPassing clouds.9 mph88%29.80 "HgN/A
2:20 AM54 °FPassing clouds.9 mph82%29.80 "HgN/A
1:50 AM54 °FPassing clouds.9 mph82%29.80 "HgN/A
1:20 AM54 °FPassing clouds.10 mph82%29.80 "HgN/A
12:50 AM54 °FClear.10 mph82%29.77 "Hg10 mi
12:20 AM54 °FCool.9 mph82%29.77 "HgN/A
11:50 PM
Thu, Aug 27
52 °FClear.8 mph88%29.77 "Hg10 mi
11:20 PM54 °FClear.8 mph82%29.77 "Hg10 mi
10:50 PM54 °FClear.7 mph77%29.77 "Hg10 mi
10:20 PM54 °FClear.7 mph77%29.77 "Hg10 mi
9:50 PM55 °FClear.8 mph72%29.74 "Hg10 mi
9:20 PM55 °FClear.8 mph72%29.74 "Hg10 mi
8:50 PM55 °FPassing clouds.7 mph67%29.74 "HgN/A
8:20 PM55 °FPassing clouds.7 mph72%29.71 "HgN/A
7:50 PM59 °FPassing clouds.10 mph59%29.71 "HgN/A
7:20 PM61 °FPassing clouds.13 mph55%29.71 "HgN/A
Weather by CustomWeather, © 2015

See weather overviewHow to use our weather pages